period_start,C,m1,H,J0,J1,J2,J3,J4,J5,JA,JB,JC,JD,JJ,JK,JN,#
2014-10-05 00:01:34,0.03,0.91,0.00,23.28,27.52,30.32,4.70,26.93,1016.62,2036.00,3109.61,3059.64,3301.13,349.37,346.82,21.34,0000 0000 0000 0000 000000
2014-10-05 00:06:35,0.04,0.91,0.00,23.22,27.52,30.30,4.73,26.89,1016.63,2036.00,3109.10,3059.27,3301.03,349.88,347.19,21.37,0000 0000 0000 0000 000000
2014-10-05 00:11:36,-0.01,0.91,0.00,23.25,27.52,30.28,4.84,27.05,1016.65,2036.00,3109.07,3059.33,3301.02,350.72,347.82,21.40,0000 0000 0000 0000 000000
2014-10-05 00:16:37,0.01,0.91,0.00,23.27,27.52,30.32,4.77,26.99,1016.65,2036.00,3109.01,3059.11,3301.00,349.63,347.32,21.43,0000 0000 0000 0000 000000
2014-10-05 00:21:38,0.00,0.91,0.00,23.24,27.52,30.31,4.81,26.90,1016.65,2036.00,3109.00,3059.05,3301.00,350.47,347.58,21.46,0000 0000 0000 0000 000000
2014-10-05 00:26:39,-0.00,0.91,0.00,23.24,27.52,30.25,4.80,26.87,1016.66,2036.00,3109.01,3059.04,3300.99,349.07,346.52,21.49,0000 0000 0000 0000 000000
2014-10-05 00:31:41,-0.00,0.91,0.00,23.23,27.52,30.28,4.75,26.97,1016.68,2036.00,3109.00,3059.08,3300.99,349.55,347.50,21.52,0000 0000 0000 0000 000000
2014-10-05 00:36:41,0.00,0.91,0.00,23.32,27.52,30.29,4.83,26.84,1016.64,2036.00,3109.00,3059.03,3300.98,350.22,347.62,21.55,0000 0000 0000 0000 000000
2014-10-05 00:41:43,0.00,0.91,0.00,23.35,27.52,30.28,4.83,26.86,1016.65,2036.00,3109.00,3059.03,3300.97,350.15,347.51,21.58,0000 0000 0000 0000 000000
2014-10-05 00:46:44,0.00,0.91,0.00,23.28,27.52,30.30,4.73,26.82,1016.66,2036.01,3108.98,3059.01,3300.95,349.46,346.64,21.61,0000 0000 0000 0000 000000
2014-10-05 00:51:45,0.00,0.91,0.00,23.24,27.52,30.27,4.73,26.90,1016.71,2036.01,3108.97,3059.01,3300.94,349.62,347.05,21.64,0000 0000 0000 0000 000000
2014-10-05 00:56:47,-0.00,0.91,0.00,23.23,27.52,30.28,4.81,26.99,1016.69,2036.01,3108.98,3059.01,3300.96,349.73,347.33,21.66,0000 0000 0000 0000 000000
2014-10-05 01:01:48,-0.00,0.91,0.00,23.35,27.52,30.28,4.75,26.94,1016.85,2036.01,3108.99,3059.01,3300.97,349.40,346.85,21.69,0000 0000 0000 0000 000000
2014-10-05 01:06:50,0.00,0.91,0.00,23.31,27.52,30.25,4.77,26.85,1017.06,2036.00,3109.00,3059.00,3300.94,349.34,346.78,21.72,0000 0000 0000 0000 000000
2014-10-05 01:11:51,0.01,0.91,0.00,23.24,27.52,30.27,4.74,26.96,1017.04,2036.00,3108.99,3059.00,3300.79,349.90,347.61,21.75,0000 0000 0000 0000 000000
2014-10-05 01:16:52,0.00,0.91,0.00,23.27,27.52,30.27,4.76,26.88,1017.06,2036.00,3108.96,3059.00,3300.40,349.49,346.94,21.78,0000 0000 0000 0000 000000
2014-10-05 01:21:54,0.00,0.91,0.00,23.23,27.52,30.30,4.78,26.89,1017.06,2036.00,3108.98,3059.00,3300.49,350.27,348.09,21.81,0000 0000 0000 0000 000000
2014-10-05 01:26:55,-0.00,0.91,0.00,23.38,27.53,30.30,4.79,27.01,1017.09,2036.00,3108.98,3058.99,3300.35,349.41,346.88,21.84,0000 0000 0000 0000 000000
2014-10-05 01:31:56,0.00,0.91,0.00,23.38,27.53,30.32,4.73,26.93,1017.10,2036.00,3108.98,3058.99,3300.25,349.71,347.03,21.87,0000 0000 0000 0000 000000
2014-10-05 01:36:57,0.00,0.91,0.00,23.30,27.55,30.31,4.82,26.94,1017.10,2036.00,3108.87,3058.98,3300.06,349.24,346.97,21.90,0000 0000 0000 0000 000000
2014-10-05 01:41:58,-0.00,0.91,0.00,23.23,27.55,30.32,4.75,27.02,1017.10,2036.00,3108.80,3058.98,3300.05,349.84,347.36,21.93,0000 0000 0000 0000 000000
2014-10-05 01:47:00,0.01,0.92,0.00,23.23,27.55,30.32,4.84,26.98,1017.10,2036.00,3108.60,3058.97,3300.04,350.54,348.07,21.96,0000 0000 0000 0000 000000
2014-10-05 01:52:01,0.02,0.92,0.00,23.27,27.55,30.30,4.69,26.83,1017.11,2036.00,3108.18,3058.93,3300.00,349.63,347.36,21.99,0000 0000 0000 0000 000000
2014-10-05 01:57:02,0.01,0.92,0.00,23.29,27.55,30.31,4.72,27.00,1017.12,2036.00,3108.01,3058.75,3300.00,349.24,346.82,22.02,0000 0000 0000 0000 000000
2014-10-05 02:02:03,-0.00,0.92,0.00,23.26,27.55,30.34,4.85,26.93,1017.12,2036.00,3108.04,3058.83,3300.00,350.59,347.94,22.05,0000 0000 0000 0000 000000
2014-10-05 02:07:04,-0.00,0.92,0.00,23.22,27.55,30.34,4.80,26.88,1017.12,2036.00,3108.01,3058.79,3300.00,349.72,347.44,22.07,0000 0000 0000 0000 000000
2014-10-05 02:12:05,0.01,0.92,0.00,23.30,27.55,30.35,4.83,27.04,1017.13,2036.00,3108.00,3058.66,3299.98,350.41,347.78,22.10,0000 0000 0000 0000 000000
2014-10-05 02:17:06,0.01,0.92,0.00,23.38,27.55,30.33,4.77,27.07,1017.12,2035.99,3108.00,3058.27,3299.98,349.68,347.01,22.13,0000 0000 0000 0000 000000
2014-10-05 02:22:08,0.00,0.92,0.00,23.30,27.55,30.33,4.81,27.09,1017.11,2035.99,3107.99,3058.15,3299.95,349.86,347.22,22.16,0000 0000 0000 0000 000000
2014-10-05 02:27:09,0.01,0.92,0.00,23.26,27.55,30.35,4.83,27.04,1017.11,2035.99,3107.99,3058.07,3299.82,349.74,347.34,22.19,0000 0000 0000 0000 000000
2014-10-05 02:32:10,0.02,0.92,0.00,23.29,27.55,30.36,4.85,27.12,1017.11,2035.99,3107.91,3058.03,3299.42,350.15,347.67,22.22,0000 0000 0000 0000 000000
2014-10-05 02:37:11,0.00,0.92,0.00,23.29,27.56,30.35,4.81,26.97,1017.11,2035.98,3107.85,3058.03,3299.18,350.09,347.81,22.25,0000 0000 0000 0000 000000
2014-10-05 02:42:13,0.02,0.92,0.00,23.29,27.57,30.36,4.82,27.04,1017.09,2035.99,3107.45,3058.00,3299.03,349.96,347.63,22.28,0000 0000 0000 0000 000000
2014-10-05 02:47:14,0.01,0.92,0.00,23.25,27.57,30.37,4.75,27.00,1017.09,2035.98,3107.09,3058.00,3299.00,349.71,347.29,22.31,0000 0000 0000 0000 000000
2014-10-05 02:52:15,0.00,0.92,0.00,23.25,27.57,30.35,4.79,27.02,1017.09,2035.98,3107.07,3058.00,3299.00,350.14,347.65,22.34,0000 0000 0000 0000 000000
2014-10-05 02:57:17,-0.00,0.92,0.00,23.37,27.57,30.34,4.76,27.02,1017.09,2035.98,3107.07,3058.00,3299.01,350.58,348.09,22.37,0000 0000 0000 0000 000000
2014-10-05 03:02:18,-0.00,0.92,0.00,23.36,27.57,30.37,4.83,26.98,1017.08,2035.98,3107.02,3058.00,3299.00,350.30,347.60,22.40,0000 0000 0000 0000 000000
2014-10-05 03:07:19,0.00,0.92,0.00,23.27,27.57,30.37,4.79,27.07,1017.09,2035.98,3107.00,3057.99,3299.00,350.25,347.77,22.43,0000 0000 0000 0000 000000
2014-10-05 03:12:20,-0.00,0.92,0.00,23.27,27.57,30.38,4.82,27.23,1017.10,2035.98,3106.99,3057.98,3298.99,350.34,347.85,22.46,0000 0000 0000 0000 000000
2014-10-05 03:17:21,0.00,0.92,0.00,23.28,27.57,30.38,4.85,27.19,1017.10,2035.96,3106.97,3057.92,3298.90,350.28,347.81,22.48,0000 0000 0000 0000 000000
2014-10-05 03:22:23,0.01,0.92,0.00,23.31,27.57,30.38,4.78,26.98,1017.10,2035.97,3106.96,3057.94,3298.81,349.99,347.42,22.51,0000 0000 0000 0000 000000
2014-10-05 03:27:24,0.00,0.92,0.00,23.27,27.57,30.35,4.83,27.00,1017.10,2035.97,3106.94,3057.91,3298.71,350.79,348.30,22.54,0000 0000 0000 0000 000000
2014-10-05 03:32:25,0.02,0.92,0.00,23.26,27.57,30.35,4.81,27.07,1017.10,2035.96,3106.92,3057.72,3298.41,349.92,347.28,22.57,0000 0000 0000 0000 000000
2014-10-05 03:37:27,0.03,0.92,0.00,23.31,27.57,30.36,4.71,27.07,1017.11,2035.96,3106.64,3057.57,3298.14,349.71,347.37,22.60,0000 0000 0000 0000 000000
2014-10-05 03:42:28,0.02,0.92,0.00,23.27,27.57,30.37,4.80,27.10,1017.11,2035.95,3106.21,3057.34,3298.04,349.83,347.39,22.63,0000 0000 0000 0000 000000
2014-10-05 03:47:29,0.01,0.92,0.00,23.23,27.57,30.38,4.71,26.99,1017.12,2035.96,3106.02,3057.08,3298.00,349.38,347.07,22.66,0000 0000 0000 0000 000000
2014-10-05 03:52:30,-0.00,0.92,0.00,23.33,27.57,30.35,4.73,27.07,1017.14,2035.94,3106.01,3057.04,3298.00,349.91,347.40,22.69,0000 0000 0000 0000 000000
2014-10-05 03:57:31,0.00,0.92,0.00,23.34,27.57,30.36,4.75,26.96,1017.20,2035.90,3106.00,3057.01,3298.00,349.80,347.44,22.72,0000 0000 0000 0000 000000
2014-10-05 04:02:32,0.01,0.92,0.00,23.24,27.57,30.36,4.77,27.01,1017.37,2035.97,3106.00,3057.01,3298.00,349.88,347.64,22.75,0000 0000 0000 0000 000000
2014-10-05 04:07:34,-0.00,0.92,0.00,23.24,27.57,30.36,4.81,26.95,1017.54,2035.94,3105.98,3057.00,3297.97,349.89,347.63,22.78,0000 0000 0000 0000 000000
2014-10-05 04:12:35,0.00,0.92,0.00,23.32,27.57,30.35,4.81,27.13,1017.57,2035.90,3105.83,3057.00,3297.84,349.81,347.42,22.81,0000 0000 0000 0000 000000
2014-10-05 04:17:36,0.01,0.92,0.00,23.28,27.57,30.36,4.76,26.97,1017.58,2035.92,3105.72,3057.00,3297.77,349.54,347.39,22.84,0000 0000 0000 0000 000000
2014-10-05 04:22:37,0.01,0.92,0.00,23.26,27.57,30.35,4.75,26.95,1017.58,2035.96,3105.78,3057.00,3297.78,349.47,346.97,22.86,0000 0000 0000 0000 000000
2014-10-05 04:27:39,-0.00,0.92,0.00,23.31,27.57,30.36,4.80,26.97,1017.59,2035.98,3105.79,3057.00,3297.73,349.83,347.34,22.89,0000 0000 0000 0000 000000
2014-10-05 04:32:40,-0.01,0.92,0.00,23.31,27.57,30.35,4.82,26.95,1017.59,2035.96,3105.95,3057.00,3297.90,350.43,348.01,22.92,0000 0000 0000 0000 000000
2014-10-05 04:37:42,0.00,0.92,0.00,23.27,27.57,30.33,4.81,26.94,1017.59,2035.97,3105.97,3057.00,3297.79,350.23,347.89,22.95,0000 0000 0000 0000 000000
2014-10-05 04:42:43,0.01,0.92,0.00,23.27,27.57,30.34,4.83,26.97,1017.59,2035.90,3105.76,3056.99,3297.34,350.05,347.84,22.98,0000 0000 0000 0000 000000
2014-10-05 04:47:44,-0.01,0.92,0.00,23.30,27.57,30.33,4.75,27.09,1017.55,2035.92,3105.94,3056.99,3297.49,349.08,346.72,23.01,0000 0000 0000 0000 000000
2014-10-05 04:52:45,0.03,0.92,0.00,23.27,27.57,30.35,4.79,27.02,1017.53,2035.91,3105.56,3056.98,3297.18,349.94,347.67,23.04,0000 0000 0000 0000 000000
2014-10-05 04:57:46,0.01,0.92,0.00,23.22,27.56,30.34,4.81,27.07,1017.50,2035.94,3105.18,3056.98,3297.07,350.43,348.28,23.07,0000 0000 0000 0000 000000
2014-10-05 05:02:47,-0.01,0.92,0.00,23.26,27.56,30.34,4.82,27.02,1017.54,2035.90,3105.10,3056.95,3297.04,349.77,347.55,23.10,0000 0000 0000 0000 000000
2014-10-05 05:07:48,0.01,0.92,0.00,23.26,27.55,30.35,4.82,26.99,1017.59,2035.75,3105.00,3056.35,3297.00,350.05,347.81,23.13,0000 0000 0000 0000 000000
2014-10-05 05:12:50,0.01,0.92,0.00,23.20,27.55,30.35,4.78,27.21,1017.59,2035.82,3104.98,3056.31,3296.99,349.65,347.44,23.16,0000 0000 0000 0000 000000
2014-10-05 05:17:51,-0.00,0.92,0.00,23.26,27.55,30.34,4.73,26.99,1017.59,2035.74,3104.97,3056.08,3296.98,349.74,347.37,23.19,0000 0000 0000 0000 000000
2014-10-05 05:22:52,-0.00,0.92,0.00,23.31,27.55,30.36,4.74,27.05,1017.59,2035.69,3104.97,3056.09,3296.97,349.61,347.44,23.22,0000 0000 0000 0000 000000
2014-10-05 05:27:53,0.02,0.92,0.00,23.26,27.55,30.33,4.82,27.02,1017.59,2035.79,3104.93,3056.04,3296.96,350.16,348.06,23.25,0000 0000 0000 0000 000000
2014-10-05 05:32:55,0.01,0.92,0.00,23.28,27.55,30.35,4.78,27.02,1017.59,2035.92,3104.96,3056.05,3296.95,350.37,348.12,23.27,0000 0000 0000 0000 000000
2014-10-05 05:37:56,-0.02,0.92,0.00,23.36,27.55,30.33,4.76,27.06,1017.61,2035.81,3104.92,3056.01,3296.89,349.27,346.87,23.30,0000 0000 0000 0000 000000
2014-10-05 05:42:57,0.02,0.92,0.00,23.28,27.55,30.33,4.74,26.86,1017.62,2035.74,3104.68,3056.01,3296.59,350.04,347.59,23.33,0000 0000 0000 0000 000000
2014-10-05 05:47:58,-0.02,0.92,0.00,23.23,27.55,30.33,4.72,27.01,1017.69,2035.56,3104.47,3056.00,3296.32,349.44,347.25,23.36,0000 0000 0000 0000 000000
2014-10-05 05:52:59,-0.00,0.92,0.00,23.24,27.55,30.35,4.86,27.07,1017.87,2035.65,3104.55,3056.00,3296.41,350.08,348.07,23.39,0000 0000 0000 0000 000000
2014-10-05 05:58:00,0.03,0.92,0.00,23.27,27.55,30.36,4.78,26.92,1018.02,2035.66,3104.28,3056.00,3296.14,349.83,347.68,23.42,0000 0000 0000 0000 000000
2014-10-05 06:03:01,-0.02,0.92,0.00,23.30,27.55,30.32,4.79,26.88,1018.08,2035.49,3104.03,3056.00,3296.01,350.41,348.19,23.45,0000 0000 0000 0000 000000
2014-10-05 06:08:03,-0.02,0.92,0.00,23.23,27.56,30.33,4.78,26.98,1018.08,2035.38,3104.02,3056.00,3296.01,349.59,347.50,23.48,0000 0000 0000 0000 000000
2014-10-05 06:13:04,-0.03,0.92,0.00,23.20,27.55,30.35,4.78,27.08,1018.08,2035.25,3104.01,3055.99,3296.01,350.16,348.15,23.51,0000 0000 0000 0000 000000
2014-10-05 06:18:06,0.01,0.92,0.00,23.33,27.55,30.37,4.79,27.02,1018.08,2035.13,3104.01,3055.99,3296.00,349.78,347.69,23.54,0000 0000 0000 0000 000000
2014-10-05 06:23:07,0.02,0.92,0.00,23.46,27.56,30.38,4.78,26.98,1018.08,2035.32,3104.05,3055.99,3296.02,350.27,347.78,23.57,0000 0000 0000 0000 000000
2014-10-05 06:28:08,-0.03,0.92,0.00,23.50,27.57,30.35,4.79,27.07,1018.08,2035.10,3104.02,3055.98,3296.00,350.20,347.65,23.60,0000 0000 0000 0000 000000
2014-10-05 06:33:09,0.00,0.92,0.00,23.40,27.57,30.30,4.77,27.06,1018.08,2035.09,3104.00,3055.97,3296.00,349.45,347.17,23.63,0000 0000 0000 0000 000000
2014-10-05 06:38:10,-0.00,0.92,0.00,23.22,27.57,30.39,4.74,27.16,1018.08,2035.05,3104.00,3055.91,3296.00,349.54,347.46,23.66,0000 0000 0000 0000 000000
2014-10-05 06:43:11,0.32,0.93,0.00,23.23,27.58,30.42,4.79,26.97,1018.10,2035.03,3101.18,3053.80,3293.88,349.95,347.82,23.68,0000 0000 0000 0000 000000
2014-10-05 06:48:12,0.02,0.93,0.00,23.40,27.60,30.42,4.83,26.93,1018.14,2035.02,3099.94,3052.98,3292.98,350.36,348.11,23.71,0000 0000 0000 0000 000000
2014-10-05 06:53:14,0.01,0.93,0.00,23.45,27.60,30.39,4.73,26.93,1018.43,2035.01,3099.52,3052.94,3292.94,349.32,347.21,23.74,0000 0000 0000 0000 000000
2014-10-05 06:58:15,0.03,0.93,0.00,23.32,27.60,30.40,4.72,26.88,1018.54,2035.01,3099.11,3052.80,3292.56,349.50,347.49,23.77,0000 0000 0000 0000 000000
2014-10-05 07:03:16,0.01,0.93,0.00,23.19,27.61,30.46,4.75,27.00,1018.56,2035.00,3099.00,3052.56,3292.18,350.02,347.91,23.80,0000 0000 0000 0000 000000
2014-10-05 07:08:17,0.00,0.93,0.00,23.22,27.62,30.45,4.77,27.02,1018.57,2035.01,3099.00,3052.55,3292.14,349.74,348.06,23.83,0000 0000 0000 0000 000000
2014-10-05 07:13:18,0.02,0.93,0.00,23.34,27.62,30.46,4.77,27.15,1018.57,2035.01,3099.00,3052.28,3292.04,349.78,348.09,23.86,0000 0000 0000 0000 000000
2014-10-05 07:18:19,0.01,0.94,0.00,23.34,27.62,30.47,4.82,26.98,1018.57,2035.00,3098.88,3052.02,3292.00,350.02,347.98,23.89,0000 0000 0000 0000 000000
2014-10-05 07:23:21,0.02,0.94,0.00,23.24,27.62,30.44,4.81,26.87,1018.58,2035.00,3098.20,3052.00,3291.95,350.13,348.09,23.92,0000 0000 0000 0000 000000
2014-10-05 07:28:22,0.00,0.94,0.00,23.19,27.62,30.45,4.75,26.84,1018.60,2035.00,3098.06,3052.00,3291.92,349.73,347.81,23.95,0000 0000 0000 0000 000000
2014-10-05 07:33:23,0.00,0.94,0.00,23.26,27.62,30.44,4.78,26.94,1018.63,2035.00,3098.05,3052.00,3291.91,349.91,347.76,23.98,0000 0000 0000 0000 000000
2014-10-05 07:38:24,0.01,0.94,0.00,23.38,27.62,30.47,4.82,26.83,1018.62,2035.00,3098.02,3051.99,3291.68,350.25,348.17,24.01,0000 0000 0000 0000 000000
2014-10-05 07:43:26,0.00,0.94,0.00,23.44,27.62,30.45,4.75,26.93,1018.62,2035.00,3098.01,3051.97,3291.45,349.86,347.69,24.04,0000 0000 0000 0000 000000
2014-10-05 07:48:27,0.01,0.94,0.00,23.45,27.63,30.43,4.73,26.96,1018.61,2035.00,3098.00,3051.83,3291.15,349.58,347.55,24.07,0000 0000 0000 0000 000000
2014-10-05 07:53:28,0.01,0.94,0.00,23.26,27.64,30.43,4.89,27.04,1018.61,2035.00,3098.00,3051.51,3291.04,350.22,348.22,24.09,0000 0000 0000 0000 000000
2014-10-05 07:58:29,0.01,0.94,0.00,23.14,27.65,30.46,4.80,26.93,1018.65,2035.00,3097.99,3051.22,3291.01,349.99,348.28,24.12,0000 0000 0000 0000 000000
2014-10-05 08:03:31,-0.00,0.94,0.00,23.19,27.65,30.47,4.82,26.96,1018.71,2035.00,3097.99,3051.30,3291.01,350.03,348.34,24.15,0000 0000 0000 0000 000000
2014-10-05 08:08:32,0.01,0.94,0.00,23.32,27.65,30.48,4.80,26.97,1018.85,2035.00,3097.99,3051.13,3291.00,350.26,348.29,24.18,0000 0000 0000 0000 000000
2014-10-05 08:13:34,0.01,0.94,0.00,23.39,27.65,30.48,4.74,27.06,1018.95,2034.99,3097.91,3051.04,3290.99,349.95,347.81,24.21,0000 0000 0000 0000 000000
2014-10-05 08:18:35,-0.00,0.94,0.00,23.47,27.65,30.47,4.82,26.95,1019.00,2034.99,3097.96,3051.08,3290.99,349.83,347.92,24.24,0000 0000 0000 0000 000000
2014-10-05 08:23:36,0.00,0.94,0.00,23.53,27.65,30.47,4.75,26.95,1018.99,2034.99,3097.91,3051.04,3290.99,349.37,347.29,24.27,0000 0000 0000 0000 000000
2014-10-05 08:28:38,0.01,0.94,0.00,23.48,27.66,30.40,4.71,26.93,1019.05,2034.98,3097.56,3051.01,3290.98,349.62,347.42,24.30,0000 0000 0000 0000 000000
2014-10-05 08:33:39,0.01,0.94,0.00,23.22,27.67,30.48,4.76,26.98,1019.06,2034.97,3097.08,3051.00,3290.85,350.35,348.65,24.33,0000 0000 0000 0000 000000
2014-10-05 08:38:40,0.01,0.94,0.00,23.15,27.67,30.50,4.81,26.93,1019.06,2034.93,3097.01,3050.99,3290.36,349.93,348.25,24.36,0000 0000 0000 0000 000000
2014-10-05 08:43:41,0.01,0.94,0.00,23.23,27.67,30.53,4.90,26.98,1019.06,2034.96,3097.00,3050.99,3290.12,350.34,348.46,24.39,0000 0000 0000 0000 000000
2014-10-05 08:48:42,0.00,0.94,0.00,23.33,27.67,30.57,4.78,26.93,1019.07,2034.96,3097.00,3050.98,3290.09,350.07,348.23,24.42,0000 0000 0000 0000 000000
2014-10-05 08:53:43,0.00,0.94,0.00,23.41,27.68,30.56,4.77,26.88,1019.07,2034.95,3096.98,3050.97,3290.01,349.56,347.40,24.45,0000 0000 0000 0000 000000
2014-10-05 08:58:45,-0.00,0.94,0.00,23.43,27.70,30.57,4.82,26.91,1019.08,2034.77,3096.81,3050.68,3290.00,349.85,347.99,24.48,0000 0000 0000 0000 000000
2014-10-05 09:03:46,0.02,0.94,0.00,23.48,27.70,30.56,4.79,26.92,1019.09,2034.81,3096.73,3050.45,3290.00,349.91,348.03,24.50,0000 0000 0000 0000 000000
2014-10-05 09:08:47,-0.00,0.94,0.00,23.30,27.70,30.54,4.79,26.97,1019.25,2034.60,3096.25,3050.11,3289.98,349.71,348.25,24.53,0000 0000 0000 0000 000000
2014-10-05 09:13:48,-0.04,0.94,0.00,23.11,27.71,30.60,4.82,27.11,1019.43,2034.36,3096.03,3050.04,3289.72,349.97,348.53,24.56,0000 0000 0000 0000 000000
2014-10-05 09:18:49,0.05,0.94,0.00,23.16,27.72,30.60,4.69,26.83,1019.55,2034.47,3096.01,3050.02,3289.76,350.03,348.52,24.59,0000 0000 0000 0000 000000
2014-10-05 09:23:51,-0.01,0.94,0.00,23.27,27.72,30.62,4.82,26.95,1019.53,2034.51,3096.00,3050.01,3289.39,350.47,348.87,24.62,0000 0000 0000 0000 000000
2014-10-05 09:28:51,-0.02,0.94,0.00,23.33,27.72,30.63,4.76,26.93,1019.51,2034.29,3095.96,3050.00,3289.06,349.87,348.21,24.65,0000 0000 0000 0000 000000
2014-10-05 09:33:53,0.02,0.94,0.00,23.35,27.72,30.65,4.71,26.95,1019.52,2034.20,3095.48,3049.99,3289.00,349.60,347.74,24.68,0000 0000 0000 0000 000000
2014-10-05 09:38:54,-0.01,0.94,0.00,23.36,27.74,30.63,4.75,26.96,1019.48,2034.12,3095.04,3049.97,3288.99,350.53,348.81,24.71,0000 0000 0000 0000 000000
2014-10-05 09:43:55,0.00,0.94,0.00,23.40,27.75,30.62,4.79,26.98,1019.54,2034.06,3095.00,3049.82,3288.95,349.72,347.74,24.74,0000 0000 0000 0000 000000
2014-10-05 09:48:56,0.03,0.94,0.00,23.30,27.75,30.64,4.76,26.92,1019.54,2034.04,3095.00,3049.47,3288.58,350.06,348.37,24.77,0000 0000 0000 0000 000000
2014-10-05 09:53:57,0.02,0.94,0.00,23.10,27.75,30.62,4.80,26.86,1019.54,2034.05,3094.96,3049.19,3288.26,349.61,348.27,24.80,0000 0000 0000 0000 000000
2014-10-05 09:58:59,0.01,0.94,0.00,23.18,27.75,30.64,4.81,26.96,1019.54,2034.04,3094.95,3049.10,3288.09,349.97,348.40,24.83,0000 0000 0000 0000 000000
2014-10-05 10:04:00,0.03,0.94,0.00,23.27,27.77,30.67,4.75,26.93,1019.34,2034.08,3094.52,3049.07,3288.04,349.91,348.16,24.86,0000 0000 0000 0000 000000
2014-10-05 10:09:02,0.00,0.94,0.00,23.31,27.77,30.68,4.73,26.99,1019.21,2034.06,3094.03,3049.01,3288.00,349.47,347.68,24.89,0000 0000 0000 0000 000000
2014-10-05 10:14:03,-0.00,0.94,0.00,23.34,27.77,30.69,4.81,27.18,1019.14,2034.02,3094.00,3049.00,3287.98,349.88,348.06,24.91,0000 0000 0000 0000 000000
2014-10-05 10:19:05,0.00,0.94,0.00,23.32,27.77,30.70,4.82,26.96,1019.09,2034.01,3093.99,3048.98,3287.83,350.02,348.12,24.94,0000 0000 0000 0000 000000
2014-10-05 10:24:06,0.02,0.94,0.00,23.36,27.78,30.70,4.87,27.10,1019.09,2034.01,3093.81,3048.91,3287.29,350.59,348.80,24.97,0000 0000 0000 0000 000000
2014-10-05 10:29:07,0.01,0.94,0.00,23.20,27.79,30.68,4.80,27.01,1019.15,2034.00,3093.46,3048.82,3287.06,349.65,348.06,25.00,0000 0000 0000 0000 000000
2014-10-05 10:34:09,-0.01,0.94,0.00,23.11,27.80,30.67,4.78,26.93,1019.20,2034.01,3093.55,3048.92,3287.05,349.74,348.27,25.03,0000 0000 0000 0000 000000
2014-10-05 10:39:10,0.02,0.94,0.00,23.18,27.80,30.68,4.78,26.89,1019.22,2034.01,3093.33,3048.74,3287.01,350.21,348.62,25.06,0000 0000 0000 0000 000000
2014-10-05 10:44:11,0.02,0.94,0.00,23.22,27.80,30.73,4.74,26.97,1019.21,2034.00,3093.38,3048.49,3287.01,349.93,348.09,25.09,0000 0000 0000 0000 000000
2014-10-05 10:49:13,0.01,0.94,0.00,23.25,27.80,30.75,4.77,26.89,1019.37,2034.00,3093.15,3048.13,3287.00,349.87,348.35,25.12,0000 0000 0000 0000 000000
2014-10-05 10:54:14,0.00,0.95,0.00,23.24,27.80,30.74,4.75,26.93,1019.32,2034.00,3093.13,3048.08,3287.00,350.21,348.54,25.15,0000 0000 0000 0000 000000
2014-10-05 10:59:15,0.00,0.95,0.00,23.24,27.80,30.74,4.77,26.89,1019.29,2034.00,3093.02,3048.03,3286.99,349.76,348.23,25.18,0000 0000 0000 0000 000000
2014-10-05 11:04:16,0.00,0.95,0.00,23.26,27.80,30.72,4.83,26.90,1019.29,2034.00,3093.00,3048.01,3286.98,350.21,348.42,25.21,0000 0000 0000 0000 000000
2014-10-05 11:09:18,0.00,0.95,0.00,23.28,27.80,30.72,4.77,26.94,1019.21,2034.00,3093.00,3048.02,3286.96,349.88,348.18,25.24,0000 0000 0000 0000 000000
2014-10-05 11:14:18,0.02,0.95,0.00,23.20,27.81,30.69,4.81,27.05,1019.10,2034.00,3092.84,3048.00,3286.63,349.54,347.88,25.27,0000 0000 0000 0000 000000
2014-10-05 11:19:20,0.01,0.95,0.00,23.21,27.82,30.67,4.84,26.94,1019.06,2034.00,3092.46,3048.00,3286.05,350.46,348.49,25.30,0000 0000 0000 0000 000000
2014-10-05 11:24:21,-0.00,0.95,0.00,23.22,27.82,30.70,4.82,26.92,1019.06,2034.00,3092.53,3048.00,3286.09,349.96,348.33,25.33,0000 0000 0000 0000 000000
2014-10-05 11:29:22,-0.01,0.95,0.00,23.22,27.82,30.74,4.78,26.92,1019.07,2034.00,3092.80,3048.00,3286.21,349.96,348.15,25.35,0000 0000 0000 0000 000000
2014-10-05 11:34:23,0.01,0.95,0.00,23.22,27.82,30.75,4.84,27.04,1019.07,2034.00,3092.55,3048.00,3286.05,350.07,348.58,25.38,0000 0000 0000 0000 000000
2014-10-05 11:39:24,0.00,0.95,0.00,23.21,27.82,30.77,4.79,26.99,1019.08,2034.00,3092.16,3047.99,3286.02,349.81,348.13,25.41,0000 0000 0000 0000 000000
2014-10-05 11:44:26,0.00,0.95,0.00,23.20,27.82,30.79,4.81,26.98,1019.07,2034.00,3092.24,3047.99,3286.00,350.01,348.41,25.44,0000 0000 0000 0000 000000
2014-10-05 11:49:27,-0.01,0.95,0.00,23.19,27.82,30.79,4.77,26.89,1019.07,2034.00,3092.42,3047.99,3286.01,350.12,348.28,25.47,0000 0000 0000 0000 000000
2014-10-05 11:54:28,0.00,0.95,0.00,23.18,27.82,30.78,4.81,27.02,1019.07,2034.00,3092.28,3047.97,3286.01,350.12,348.60,25.50,0000 0000 0000 0000 000000
2014-10-05 11:59:29,0.00,0.95,0.00,23.19,27.82,30.76,4.83,26.96,1019.11,2034.00,3092.13,3047.99,3286.00,349.90,348.22,25.53,0000 0000 0000 0000 000000
2014-10-05 12:04:30,0.00,0.95,0.00,23.20,27.82,30.76,4.79,26.88,1019.10,2034.00,3092.13,3047.99,3286.01,349.89,348.09,25.56,0000 0000 0000 0000 000000
2014-10-05 12:09:31,0.00,0.95,0.00,23.18,27.82,30.77,4.81,26.93,1019.09,2034.00,3092.04,3047.98,3286.00,349.81,348.00,25.59,0000 0000 0000 0000 000000
2014-10-05 12:14:33,0.02,0.95,0.00,23.19,27.82,30.77,4.83,27.13,1019.09,2034.00,3092.00,3047.78,3285.99,350.25,348.34,25.62,0000 0000 0000 0000 000000
2014-10-05 12:19:34,-0.01,0.95,0.00,23.20,27.82,30.76,4.76,27.01,1019.09,2033.99,3092.00,3047.90,3285.98,349.68,348.02,25.65,0000 0000 0000 0000 000000
2014-10-05 12:24:35,0.01,0.95,0.00,23.20,27.82,30.76,4.79,27.08,1019.08,2033.99,3092.00,3047.84,3285.97,349.93,348.22,25.68,0000 0000 0000 0000 000000
2014-10-05 12:29:36,-0.00,0.95,0.00,23.20,27.84,30.78,4.88,27.15,1019.06,2033.99,3092.00,3047.71,3285.97,350.74,348.98,25.71,0000 0000 0000 0000 000000
2014-10-05 12:34:37,0.02,0.95,0.00,23.25,27.84,30.77,4.80,27.11,1019.06,2033.99,3091.99,3047.47,3285.91,349.31,347.54,25.73,0000 0000 0000 0000 000000
2014-10-05 12:39:38,-0.00,0.95,0.00,23.21,27.85,30.70,4.77,27.02,1019.04,2033.99,3091.98,3047.35,3285.73,349.34,347.67,25.76,0000 0000 0000 0000 000000
2014-10-05 12:44:39,0.01,0.95,0.00,23.23,27.85,30.73,4.74,26.94,1018.96,2033.99,3091.98,3047.29,3285.66,349.67,348.17,25.79,0000 0000 0000 0000 000000
2014-10-05 12:49:40,0.02,0.95,0.00,23.19,27.85,30.78,4.76,26.84,1018.91,2033.99,3091.94,3047.13,3285.35,350.19,348.34,25.82,0000 0000 0000 0000 000000
2014-10-05 12:54:42,0.01,0.95,0.00,23.12,27.85,30.83,4.84,26.91,1019.01,2033.99,3091.67,3047.05,3285.10,350.26,348.37,25.85,0000 0000 0000 0000 000000
2014-10-05 12:59:43,0.02,0.95,0.00,23.09,27.85,30.82,4.79,26.95,1019.00,2033.99,3091.14,3047.03,3285.02,349.49,347.91,25.88,0000 0000 0000 0000 000000